Regional Weather Roundup
Issued by NWS Green Bay, WI

Home | Current Version | Previous Version | Graphics & Text | Print | Product List | Glossary Off
Versions: 1 2 3 4 5 6 7 8 9 10 11 12 13 14 15 16 17 18 19 20 21 22 23 24 25 26 27 28 29 30 31 32 33 34 35 36 37 38 39 40 41 42 43 44 45 46 47 48 49 50

000
ASUS43 KGRB 260059
RWRGRB

NORTH-CENTRAL AND NORTHEAST WISCONSIN REGIONAL WEATHER ROUNDUP
NATIONAL WEATHER SERVICE GREEN BAY WI
800 PM CDT FRI JUL 25 2014

WIZ005-009-010>012-018-019-260200-
NORTH CENTRAL WISCONSIN

CITY           SKY/WX    TMP DP  RH WIND       PRES   REMARKS
IRONWOOD       NOT AVBL
MANITOWISH WTR NOT AVBL
ARBOR VITAE    NOT AVBL
EAGLE RIVER    NOT AVBL
LAND O LAKES   NOT AVBL
RHINELANDER    CLOUDY    64  62  93 SW7       29.87F
PHILLIPS       CLOUDY    65  63  93 S6        29.85S
ANTIGO         NOT AVBL
TOMAHAWK       CLOUDY    65  62  90 CALM      29.88S
MERRILL        NOT AVBL
$$

WIZ013-073-260200-
NORTHEAST WISCONSIN

CITY           SKY/WX    TMP DP  RH WIND       PRES   REMARKS
IRON MOUNTAIN  CLOUDY    68  60  75 SW9       29.84S
MARINETTE      CLOUDY    70  59  68 W6        29.85S
$$

WIZ017-030-035>037-045-260200-
CENTRAL WISCONSIN

CITY           SKY/WX    TMP DP  RH WIND       PRES   REMARKS
MEDFORD        NOT AVBL
WAUSAU         CLOUDY    67  62  84 S3        29.85F
MOSINEE        NOT AVBL
MARSHFIELD     PTCLDY    68  63  84 S8        29.86F
WISC RAPIDS    CLOUDY    70  62  76 S6        29.89S
STEVENS POINT  NOT AVBL
WAUPACA        CLOUDY    71  62  72 S3        29.88S
SHAWANO        CLOUDY    71  61  72 SW5       29.87F
CLINTONVILLE   CLOUDY    68  59  73 SW5       29.87S
$$

WIZ038-039-048-051-260200-
FOX VALLEY

CITY           SKY/WX    TMP DP  RH WIND       PRES   REMARKS
NWS GREEN BAY  CLOUDY    70  61  73 SW6       29.88S
APPLETON       MOCLDY    70  59  68 SW8       29.89S
OSHKOSH        CLOUDY    71  61  70 SW7       29.88S
FOND DU LAC    CLOUDY    70  61  73 SW6       29.90R
$$

WIZ022-050-052-260200-
EAST CENTRAL WISCONSIN

CITY           SKY/WX    TMP DP  RH WIND       PRES   REMARKS
STURGEON BAY   CLOUDY    64  57  77 S8        29.88S
MANITOWOC      NOT AVBL
SHEBOYGAN      CLOUDY    69  59  70 S7        29.89S
$$

LMZ563-521-522-541>543-260200-
LAKESHORE

STATION/POSITION TIME  TEMP    WIND        PRES    VSBY  WAVE
                       AIR SEA DIR/SP/G                  HT/PER
                 (UTC) (F)     (DEG/KT/KT) (MB)    (MI)  (FT/S)
SHEBOYGAN LKSHOR 0000   62     180/ 12/ 13 1012.2F
KEWAUNEE LKSHORE 0000   57     180/ 13/ 13 1012.6F
NORTHPORT PIER   0000   65     150/  5/  9 1010.8F
N MID LAKE BUOY  0000   59 55  200/ 14/ 16 1011.1F         3/ 5
CHAMBERS ISLAND  0000   69     150/  3/  7 1011.2F
MENOMINEE LKSHOR 0000   71     210/  7/  9 1011.7S
$$


USA.gov is the U.S. government's official web portal to all federal, state and local government web resources and services.